This is the latest recevied weather packets stored in our database for station/object DH4SBM. If no packets are shown the sender has not sent any weather packets the latest 10 day(s).
| Time | Temp. | Humidity | Pressure | Rain* | Wind** | Luminosity | Snow |
|---|---|---|---|---|---|---|---|
| 1777528538 | 7.22° C | 45% | 1028.9 hPa | 0 mm | - | 274 W/m² | - |
| 1777527938 | 6.67° C | 44% | 1028.9 hPa | 0 mm | - | 244 W/m² | - |
| 1777527338 | 6.67° C | 45% | 1028.8 hPa | 0 mm | - | 214 W/m² | - |
| 1777526738 | 6.67° C | 44% | 1028.7 hPa | 0 mm | - | 188 W/m² | - |
| 1777526138 | 6.67° C | 46% | 1028.6 hPa | 0 mm | - | 149 W/m² | - |
| 1777525538 | 6.11° C | 47% | 1028.5 hPa | 0 mm | - | 134 W/m² | - |
| 1777524938 | 5.56° C | 49% | 1028.6 hPa | 0 mm | - | 109 W/m² | - |
| 1777524338 | 5.56° C | 50% | 1028.5 hPa | 0 mm | - | 83 W/m² | - |
| 1777523738 | 5.56° C | 49% | 1028.5 hPa | 0 mm | - | 42 W/m² | - |
| 1777523138 | 5.56° C | 49% | 1028.3 hPa | 0 mm | - | 12 W/m² | - |
| 1777522538 | 5.56° C | 48% | 1028.2 hPa | 0 mm | - | 7 W/m² | - |
| 1777521938 | 6.11° C | 47% | 1028.2 hPa | 0 mm | - | 0 W/m² | - |
| 1777521338 | 6.11° C | 47% | 1028.1 hPa | 0 mm | - | 0 W/m² | - |
| 1777520738 | 6.11° C | 47% | 1028.1 hPa | 0 mm | - | 0 W/m² | - |
| 1777520138 | 6.11° C | 47% | 1028.1 hPa | 0 mm | - | 0 W/m² | - |
| 1777519538 | 6.11° C | 47% | 1028.1 hPa | 0 mm | - | 0 W/m² | - |
| 1777518938 | 6.11° C | 47% | 1028.1 hPa | 0 mm | - | 0 W/m² | - |
| 1777518338 | 6.67° C | 46% | 1028.1 hPa | 0 mm | - | 0 W/m² | - |
| 1777517738 | 6.67° C | 46% | 1028 hPa | 0 mm | - | 0 W/m² | - |
| 1777517138 | 6.67° C | 46% | 1028 hPa | 0 mm | - | 0 W/m² | - |
| 1777516538 | 6.67° C | 45% | 1027.8 hPa | 0 mm | - | 0 W/m² | - |
| 1777515938 | 7.22° C | 45% | 1027.7 hPa | 0 mm | - | 0 W/m² | - |
| 1777515338 | 7.22° C | 45% | 1027.7 hPa | 0 mm | - | 0 W/m² | - |
| 1777514738 | 7.22° C | 44% | 1027.5 hPa | 0 mm | - | 0 W/m² | - |
| 1777514138 | 7.22° C | 45% | 1027.6 hPa | 0 mm | - | 0 W/m² | - |
* Rain latest hour (hover to see other rain measurements)
** Current wind speed in m/s (hover to see current wind gust speed)